Location: Roanoke
(37.2710°N, 79.9420°W)
Time: 03:43:18
(UTC-05:00)

S-56A Canister/Altair - Pass Details

Date: 21 November 2019
Orbit: 633 x 2499 km, 38.9° (Epoch: 06 December)

Event Time Altitude Azimuth Distance (km) Brightness Sun altitude
Rises 17:08:38 0° 251° (WSW) 5,578 14.9 -1.3°
Reaches altitude 10° 17:12:42 10° 251° (WSW) 4,322 13.5 -2.1°
Maximum altitude 17:23:46 86° 165° (SSE) 1,397 8.9 -4.1°
Drops below altitude 10° 17:30:52 10° 77° (ENE) 2,861 9.8 -5.4°
Enters shadow 17:31:43 - 77° (ENE) 3,147 10.0 -5.6°
Sets 17:33:05 0° 77° (ENE) 3,628 - -5.8°
